Tri Cities Regional Tn Va Airport Bristol,Johnson,Kingsport US
ICAO: KTRI
IATA: TRI
Category: Large
Scheduled Services: Yes

Elevation: 1519 ft
TransAlt. 18000 ft.

Airport Communications:
APP:119.25
ATIS:118.25
CTAF:119.5
DEP:125.5
GND:121.7
NASHVILLE RDO:122.2
TWR:119.5
UNICOM:122.95

KTRI Zoom In..

Runways:

(A) RW 05 length 8000 ft width 150 ft
ILS 111.50 / hdg 48

(B) RW 09 length 4442 ft width 150 ft
---- / hdg 94

(C) RW 23 length 8000 ft width 150 ft
ILS 109.90 / hdg 228

(D) RW 27 length 4442 ft width 150 ft
---- / hdg 274

Location; KTRI
Day. 13 / Time. 12.53 Zulu
* Altimeter: 30.10
* Temperature: 23° c. 73.4°f.
* Wind from: KTR° Speed I kn.
Dewpoint: 21° c.
Visibility: 10 Statute Miles.
Clouds: Few 17000 ft.

KTRI 131253Z 10003KT 10SM FEW170 23/21 A3010 RMK AO2 SLP167 T02330206

Going to: --> -->


Wind From KTR°
Speed I kn.

 
 
jpsmedia worldairports.se 2020   terms of use